1. Welcome to Tacoma World!

    You are currently viewing as a guest! To get full-access, you need to register for a FREE account.

    As a registered member, you’ll be able to:
    • Participate in all Tacoma discussion topics
    • Communicate privately with other Tacoma owners from around the world
    • Post your own photos in our Members Gallery
    • Access all special features of the site

Fuel consumption tables thread!

Discussion in '2nd Gen. Tacomas (2005-2015)' started by supralight, Sep 21, 2010.

  1. Sep 21, 2010 at 7:03 AM
    #1
    supralight

    supralight [OP] Well-Known Member

    Joined:
    Aug 20, 2009
    Member:
    #21479
    Messages:
    674
    Gender:
    Male
    First Name:
    Dan
    Earth
    Vehicle:
    2013 4Runner limited
    Since I see a ton of MPG threads, I've decided I would share the infos I've gathered concerning full-ups.

    Sorry for the display, but that's the result of importing from excel to this forum.

    The last number of each block is the fuel consumption per unit of distance (MPG or liters/100KM)



    Firstly, my 2009 4cyl 4X4 manual.

    Driven pretty hard in city, but kept low rpm. Between 60-70 MPH on highway. The last very low L/100 KM fillups you see are on a 7000KM road trip I did from Canada to Key West.

    Also, during winter you can see the higher consumption, because of colder temps and the fact that I warm up the engine every time I can for 10-15 minutes when it's cold.

    L/100KM then MPG

    Odometer in kilometers



    FUEL RECORDS
    Odometer Liters Price T.Price L/100 km
    18066 0 20/08/09 66.9 L 1.01 67.77 xxxxx
    18372 306 26/08/09 33.18 L 1.01 33.57 10.84
    18682 310 01/09/09 33.15 L 1.01 33.55 10.69
    19248 566 08/09/09 59.18 L 1.02 60.42 10.46
    19942 694 13/09/09 25 L 1.05 26.35 Part 9.73
    20108 166 13/09/09 58.66 L 1 58.61 9.73
    20388 280 18/09/09 28.13 L 1 28.1 10.05
    20717 329 19/09/09 35.41 L 0.99 34.92 10.76
    20946 229 27/09/09 25.6 L 0.95 24.37 11.18
    21591 645 27/09/09 27.82 L 0.94 26.02
    22116 525 11/10/09 57.36 L 0.95 54.32 10.93
    22473 357 12/10/09 38.37 L 0.95 36.34 10.75
    22944 471 18/10/09 52.21 L 0.95 49.5 11.09
    23605 661 24/10/09 71.97 L 0.97 69.74 10.89
    23975 370 28/10/09 41.59 L 0.97 40.3 11.24
    24269 294 28/10/09 32.18 L 0.97 31.18 10.95
    24474 205 01/11/09 22.21 L 1.04 23.1 10.83
    24851 377 06/11/09 42.43 L 1.04 44.04 11.26
    25300 449 08/11/09 49.05 L 1 49 10.92
    25822 522 16/11/09 60.16 L 1.01 60.7 11.53
    26142 320 20/11/09 34.91 L 0.98 34.18 10.91
    26702 560 22/11/09 58.88 L 1 58.76 10.51
    27084 382 27/11/09 45.7 L 0.98 44.74 11.96
    27490 406 29/11/09 44.6 L 0.98 43.66 10.99
    27702 212 03/12/09 25.45 L 1.02 25.96 12.01
    28109 407 12/12/09 60.51 L 0.97 58.94 14.87
    28593 484 13/12/09 53.52 L 1 53.47 Part
    29542 949 20/12/09 70.21 L 0.97 68.38
    29912 370 24/12/09 47.72 L 0.97 46.48 12.9
    30127 215 26/12/09 23.76 L 0.97 23.14 11.05
    30611 484 02/01/10 67.25 L 0.96 64.49 13.9
    31161 550 07/01/10 65.74 L 1.03 67.91 11.95
    31594 433 13/01/10 54.65 L 1.05 57.44 12.62
    32147 553 21/01/10 67.99 L 1.02 69.42 12.3
    32693 546 26/01/10 68.37 L 1.04 70.97 12.52
    33210 517 01/02/10 66.26 L 1 66.33 12.82
    33397 187 04/02/10 23.75 L 1.01 23.89 12.7
    33783 386 07/02/10 46.48 L 1.01 46.76 12.04
    34353 570 14/02/10 69.56 L 0.99 69 12.2
    34898 545 21/02/10 64.74 L 1 64.74 11.88
    35292 394 28/02/10 55.68 L 1.03 57.41 14.13
    35812 520 06/03/10 62.47 L 1.05 65.84 12.01
    36338 526 12/03/10 56.25 L 1.07 59.96 10.69
    36960 622 20/03/10 70.45 L 1.06 74.54 11.33
    37493 533 28/03/10 60.55 L 1.04 63.21 11.36
    38159 666 04/04/10 69.56 L 1.05 72.9 10.44
    38866 707 16/04/10 74.03 L 1.06 78.55 10.47
    39296 430 21/04/10 47.43 L 1.05 49.94 11.03
    39781 485 28/04/10 51.14 L 1.05 53.9 10.54
    40492 711 15/05/10 71.45 L 1.03 73.52 10.05
    41051 559 24/05/10 56.23 L 1.04 58.37 10.06
    41725 674 30/05/10 64.55 L 1.03 66.29 9.58
    42447 722 06/06/10 72.75 L 1.02 74.42 10.08
    43093 646 20/06/10 66.64 L 1.03 68.91 10.32
    43652 559 24/06/10 53.28 L 1.01 53.76 9.53
    44372 720 03/07/10 69.91 L 1.03 71.94 9.71
    44861 489 07/07/10 51.72 L 1 51.67 10.58
    45475 614 14/07/10 60.68 L 1 60.74 9.88
    45823 348 18/07/10 36.17 L 1 36.21 10.39
    46472 649 24/07/10 61.68 L 1 61.74 9.5
    47174 702 28/07/10 64.28 L 1 64.34 9.16
    47619 445 28/07/10 36.49 L 1 36.53 8.2
    48033 414 28/07/10 33.16 L 1 33.19 8.01
    48617 584 28/07/10 57.73 L 1 57.79 9.89
    49283 666 28/07/10 64.12 L 1 64.18 9.63
    49648 365 28/07/10 35.73 L 1 35.77 9.79
    50222 574 28/07/10 52.8 L 1 52.85 9.2
    50759 537 28/07/10 46.26 L 1 46.31 8.62
    51260 501 28/07/10 48.49 L 1 48.54 9.68
    51965 705 28/07/10 68.59 L 1 68.66 9.73
    52318 353 28/07/10 30.02 L 1 30.05 8.5
    53156 838 28/07/10 13.55 L 1 13.56 Part 8.63
    53242 86 28/07/10 66.17 L 1 66.24 8.63
    53517 275 04/08/10 26.25 L 1 26.28 9.55
    53617 100 08/08/10 10.15 L 1 10.16 10.15
    54241 624 20/08/10 65.99 L 0.99 65.26 10.58
    54886 645 29/08/10 65.71 L 0.97 63.67 10.19

    MPG:

    FUEL RECORDS
    Odometer Liters Price T.Price MPG
    18066 0 20/08/09 66.9 L 1.01 67.77 xxxxx
    18372 306 26/08/09 33.18 L 1.01 33.57 21.7
    18682 310 01/09/09 33.15 L 1.01 33.55 22
    19248 566 08/09/09 59.18 L 1.02 60.42 22.5
    19942 694 13/09/09 25 L 1.05 26.35 Part 24.18
    20108 166 13/09/09 58.66 L 1 58.61 24.18
    20388 280 18/09/09 28.13 L 1 28.1 23.41
    20717 329 19/09/09 35.41 L 0.99 34.92 21.85
    20946 229 27/09/09 25.6 L 0.95 24.37 21.04
    21591 645 27/09/09 27.82 L 0.94 26.02
    22116 525 11/10/09 57.36 L 0.95 54.32 21.53
    22473 357 12/10/09 38.37 L 0.95 36.34 21.89
    22944 471 18/10/09 52.21 L 0.95 49.5 21.22
    23605 661 24/10/09 71.97 L 0.97 69.74 21.6
    23975 370 28/10/09 41.59 L 0.97 40.3 20.93
    24269 294 28/10/09 32.18 L 0.97 31.18 21.49
    24474 205 01/11/09 22.21 L 1.04 23.1 21.71
    24851 377 06/11/09 42.43 L 1.04 44.04 20.9
    25300 449 08/11/09 49.05 L 1 49 21.53
    25822 522 16/11/09 60.16 L 1.01 60.7 20.41
    26142 320 20/11/09 34.91 L 0.98 34.18 21.56
    26702 560 22/11/09 58.88 L 1 58.76 22.37
    27084 382 27/11/09 45.7 L 0.98 44.74 19.66
    27490 406 29/11/09 44.6 L 0.98 43.66 21.41
    27702 212 03/12/09 25.45 L 1.02 25.96 19.59
    28109 407 12/12/09 60.51 L 0.97 58.94 15.82
    28593 484 13/12/09 53.52 L 1 53.47 Part
    29542 949 20/12/09 70.21 L 0.97 68.38
    29912 370 24/12/09 47.72 L 0.97 46.48 18.24
    30127 215 26/12/09 23.76 L 0.97 23.14 21.28
    30611 484 02/01/10 67.25 L 0.96 64.49 16.93
    31161 550 07/01/10 65.74 L 1.03 67.91 19.68
    31594 433 13/01/10 54.65 L 1.05 57.44 18.64
    32147 553 21/01/10 67.99 L 1.02 69.42 19.13
    32693 546 26/01/10 68.37 L 1.04 70.97 18.78
    33210 517 01/02/10 66.26 L 1 66.33 18.35
    33397 187 04/02/10 23.75 L 1.01 23.89 18.52
    33783 386 07/02/10 46.48 L 1.01 46.76 19.53
    34353 570 14/02/10 69.56 L 0.99 69 19.27
    34898 545 21/02/10 64.74 L 1 64.74 19.8
    35292 394 28/02/10 55.68 L 1.03 57.41 16.64
    35812 520 06/03/10 62.47 L 1.05 65.84 19.58
    36338 526 12/03/10 56.25 L 1.07 59.96 22
    36960 622 20/03/10 70.45 L 1.06 74.54 20.77
    37493 533 28/03/10 60.55 L 1.04 63.21 20.71
    38159 666 04/04/10 69.56 L 1.05 72.9 22.52
    38866 707 16/04/10 74.03 L 1.06 78.55 22.46
    39296 430 21/04/10 47.43 L 1.05 49.94 21.33
    39781 485 28/04/10 51.14 L 1.05 53.9 22.31
    40492 711 15/05/10 71.45 L 1.03 73.52 23.41
    41051 559 24/05/10 56.23 L 1.04 58.37 23.38
    41725 674 30/05/10 64.55 L 1.03 66.29 24.56
    42447 722 06/06/10 72.75 L 1.02 74.42 23.34
    43093 646 20/06/10 66.64 L 1.03 68.91 22.8
    43652 559 24/06/10 53.28 L 1.01 53.76 24.68
    44372 720 03/07/10 69.91 L 1.03 71.94 24.23
    44861 489 07/07/10 51.72 L 1 51.67 22.24
    45475 614 14/07/10 60.68 L 1 60.74 23.8
    45823 348 18/07/10 36.17 L 1 36.21 22.63
    46472 649 24/07/10 61.68 L 1 61.74 24.75
    47174 702 28/07/10 64.28 L 1 64.34 25.69
    47619 445 28/07/10 36.49 L 1 36.53 28.69
    48033 414 28/07/10 33.16 L 1 33.19 29.37
    48617 584 28/07/10 57.73 L 1 57.79 23.79
    49283 666 28/07/10 64.12 L 1 64.18 24.43
    49648 365 28/07/10 35.73 L 1 35.77 24.03
    50222 574 28/07/10 52.8 L 1 52.85 25.57
    50759 537 28/07/10 46.26 L 1 46.31 27.3
    51260 501 28/07/10 48.49 L 1 48.54 24.3
    51965 705 28/07/10 68.59 L 1 68.66 24.18
    52318 353 28/07/10 30.02 L 1 30.05 27.66
    53156 838 28/07/10 13.55 L 1 13.56 Part 27.26
    53242 86 28/07/10 66.17 L 1 66.24 27.26
    53517 275 04/08/10 26.25 L 1 26.28 24.64
    53617 100 08/08/10 10.15 L 1 10.16 23.17
    54241 624 20/08/10 65.99 L 0.99 65.26 22.24
    54886 645 29/08/10 65.71 L 0.97 63.67 23.09


    Then my newer 2011 V6 TRD OR Automatic

    The last thank written there, I have been towing a 5X8 enclosed trailer for half the tank.

    Odometer in Kilometers.

    FUEL RECORDS
    Odometer Liters Price T.Price L/100 km
    392 392 03/09/10 30.02 L 0.98 29.33 xxxxx
    484 92 04/09/10 12.85 L 0.98 12.55 13.97
    749 265 05/09/10 34.4 L 0.98 33.61 12.98
    1286 537 10/09/10 64.71 L 0.98 63.22 12.05
    1767 481 15/09/10 58.45 L 0.98 57.51 12.15
    2161 394 19/09/10 47.96 L 1.02 49.11 12.17

    MPG:

    FUEL RECORDS
    Odometer Liters Price T.Price MPG
    392 392 03/09/10 30.02 L 0.98 29.33 xxxxx
    484 92 04/09/10 12.85 L 0.98 12.55 16.84
    749 265 05/09/10 34.4 L 0.98 33.61 18.12
    1286 537 10/09/10 64.71 L 0.98 63.22 19.52
    1767 481 15/09/10 58.45 L 0.98 57.51 19.36
    2161 394 19/09/10 47.96 L 1.02 49.11 19.32
     
  2. Sep 21, 2010 at 7:28 AM
    #2
    David K

    David K Well-Known Member

    Joined:
    Jun 27, 2009
    Member:
    #18969
    Messages:
    9,046
    Gender:
    Male
    San Marcos, Alta California
    Vehicle:
    2010 4WD Off Road DC
    Differential Breather Mod Light Bar: 2 Hella 4000 HID, 1 Cibie Halogen. Bilstein 5100s Ride Rite Air Bags
    Since you use the term MPG, how about having a chart with all your great recordings in Miles Per Gallon (for us in the colonies who still use the king's meausing units)?
     
  3. Sep 21, 2010 at 8:36 AM
    #3
    supralight

    supralight [OP] Well-Known Member

    Joined:
    Aug 20, 2009
    Member:
    #21479
    Messages:
    674
    Gender:
    Male
    First Name:
    Dan
    Earth
    Vehicle:
    2013 4Runner limited
    Second table of each is in MPG, just look at the last column.
     
  4. Sep 21, 2010 at 8:46 AM
    #4
    brettb

    brettb Well-Known Member

    Joined:
    Nov 27, 2009
    Member:
    #26587
    Messages:
    1,527
    Gender:
    Male
    First Name:
    Brett
    Laramie, Wyoming
    Vehicle:
    '99 Tacoma TRD Offroad sr5
    3" fabtech fox front, 2.5" DAKAR/Bilstein 5100 rear
    HOLY CRAP! I just filled up yesterday and I only get 15.5 mpg!!!! Lucky!
     
  5. Sep 21, 2010 at 9:10 AM
    #5
    supralight

    supralight [OP] Well-Known Member

    Joined:
    Aug 20, 2009
    Member:
    #21479
    Messages:
    674
    Gender:
    Male
    First Name:
    Dan
    Earth
    Vehicle:
    2013 4Runner limited
    Well, the first table was with my manual 4 cyl 4x4, which I drove for best fuel efficiency with the help of scangaugeII, and you've got a V6
     
To Top